Manteo, NC

12:23 PM EDT on March 26, 2017 (GMT -0400)
Dare County Regional

Weather History for KMQI - January, 2013

Change the Weather History Date:

Monday, January 28, 2013

  Actual Average Record
Temperature  
Mean Temperature 40 °F -  
Max Temperature 53 °F 47 °F 77 °F (1974)
Min Temperature 29 °F 35 °F 16 °F (1986)
Degree Days  
Heating Degree Days 24    
Moisture  
Dew Point 38 °F    
Average Humidity 87    
Maximum Humidity 97    
Minimum Humidity 71    
Precipitation  
Precipitation 0.00 in - - ()
Sea Level Pressure  
Sea Level Pressure 30.38 in    
Wind  
Wind Speed 3 mph (SW)    
Max Wind Speed 15 mph    
Max Gust Speed -    
Visibility 10 miles    
Events Rain    
Averages and records for this station are not official NWS values.
T = Trace of Precipitation, MM = Missing Value Source: NWS Daily Summary

Daily Weather History Graph

Daily Weather History Graph

Search for Another Location

Airport or City:

Trip Planner

Search our weather history database for the weather conditions in past years. The results will help you decide how hot, cold, wet, or windy it might be!

Date:

Astronomy

Jan. 28, 2013 Rise Set
Actual Time 7:06 AM EST 5:25 PM EST
Civil Twilight 6:38 AM EST 5:53 PM EST
Nautical Twilight 6:08 AM EST 6:23 PM EST
Astronomical Twilight 5:37 AM EST 6:54 PM EST
Moon 7:12 PM EST (1/28) 7:35 AM EST (1/28)
Length of Visible Light 11h 14m
Length of Day
10h 19m
Full, 98% of the Moon is Illuminated
Jan 28
Full
Feb 3
Last Quarter
Feb 10
New
Feb 17
First Quarter
Feb 25
Full

Hourly Weather History & Observations

Time (EST) Temp. Windchill Dew Point Humidity Pressure Visibility Wind Dir Wind Speed Gust Speed Precip Events Conditions
12:15 AM 29.7 °F 24.7 °F 27.3 °F 91% 30.53 in 10.0 mi NE 4.6 mph - N/A   Clear
12:35 AM 32.9 °F - 29.7 °F 88% 30.51 in 10.0 mi Calm Calm - N/A   Clear
12:55 AM 32.5 °F 29.3 °F 29.7 °F 89% 30.52 in 10.0 mi NE 3.5 mph - N/A   Clear
1:15 AM 33.4 °F - 29.7 °F 86% 30.52 in 10.0 mi Calm Calm - N/A   Clear
1:35 AM 30.7 °F - 28.2 °F 90% 30.52 in 10.0 mi Calm Calm - N/A   Clear
1:55 AM 29.8 °F - 27.7 °F 92% 30.51 in 10.0 mi Calm Calm - N/A   Clear
2:15 AM 29.8 °F - 27.7 °F 92% 30.51 in 10.0 mi Calm Calm - N/A   Clear
2:35 AM 30.7 °F - 28.6 °F 92% 30.50 in 10.0 mi Calm Calm - N/A   Clear
2:55 AM 29.8 °F - 28.4 °F 94% 30.51 in 10.0 mi Calm Calm - N/A   Clear
3:15 AM 29.8 °F - 28.8 °F 96% 30.50 in 10.0 mi Calm Calm - N/A   Clear
3:35 AM 30.9 °F - 29.5 °F 94% 30.50 in 10.0 mi Calm Calm - N/A   Mostly Cloudy
3:55 AM 31.6 °F - 30.0 °F 94% 30.49 in 10.0 mi Calm Calm - N/A   Overcast
4:15 AM 34.2 °F - 32.0 °F 92% 30.49 in 10.0 mi Calm Calm - N/A   Overcast
4:35 AM 35.2 °F - 32.4 °F 89% 30.48 in 10.0 mi Calm Calm - N/A   Overcast
4:55 AM 36.7 °F 34.1 °F 33.3 °F 87% 30.48 in 10.0 mi NNE 3.5 mph - N/A   Overcast
5:15 AM 37.4 °F - 33.1 °F 84% 30.48 in 10.0 mi Calm Calm - N/A   Overcast
5:35 AM 36.7 °F 34.1 °F 33.3 °F 87% 30.48 in 10.0 mi North 3.5 mph - N/A   Scattered Clouds
5:55 AM 37.0 °F - 33.3 °F 86% 30.48 in 10.0 mi Calm Calm - N/A   Mostly Cloudy
6:15 AM 37.8 °F - 33.3 °F 84% 30.48 in 10.0 mi Calm Calm - N/A   Overcast
6:35 AM 37.6 °F 34.0 °F 33.8 °F 86% 30.48 in 10.0 mi NNE 4.6 mph - N/A   Overcast
7:15 AM 37.9 °F - 34.5 °F 87% 30.48 in 10.0 mi Calm Calm - N/A   Overcast
7:35 AM 38.3 °F - 34.7 °F 87% 30.48 in 10.0 mi Calm Calm - N/A   Overcast
7:55 AM 38.5 °F - 35.2 °F 88% 30.48 in 10.0 mi Calm Calm - N/A   Overcast
8:15 AM 39.2 °F - 35.4 °F 86% 30.48 in 10.0 mi Calm Calm - N/A   Overcast
8:35 AM 40.3 °F - 35.6 °F 83% 30.47 in 10.0 mi Calm Calm - N/A   Overcast
8:55 AM 40.5 °F - 36.1 °F 85% 30.47 in 10.0 mi Calm Calm - N/A Rain Light Rain
9:15 AM 41.0 °F - 36.7 °F 85% 30.48 in 10.0 mi Calm Calm - N/A   Overcast
9:35 AM 41.4 °F 39.4 °F 36.5 °F 83% 30.48 in 10.0 mi North 3.5 mph - N/A   Overcast
9:55 AM 41.5 °F - 36.5 °F 82% 30.49 in 10.0 mi Calm Calm - N/A   Overcast
10:15 AM 41.9 °F - 36.5 °F 81% 30.50 in 10.0 mi Calm Calm - N/A   Overcast
10:35 AM 41.5 °F - 36.7 °F 83% 30.49 in 10.0 mi Calm Calm - N/A   Light Drizzle
10:55 AM 41.2 °F 39.2 °F 36.9 °F 85% 30.46 in 10.0 mi ENE 3.5 mph - N/A   Light Drizzle
11:15 AM 41.2 °F 39.2 °F 37.4 °F 86% 30.47 in 10.0 mi North 3.5 mph - N/A   Light Drizzle
11:35 AM 41.5 °F - 38.1 °F 88% 30.44 in 10.0 mi Calm Calm - N/A   Light Drizzle
12:15 PM 43.5 °F 41.9 °F 39.4 °F 85% 30.41 in 10.0 mi WSW 3.5 mph - N/A   Overcast
12:35 PM 42.3 °F - 38.8 °F 88% 30.40 in 10.0 mi Calm Calm - N/A   Overcast
12:55 PM 43.0 °F - 38.7 °F 85% 30.38 in 10.0 mi Calm Calm - N/A   Overcast
1:15 PM 42.1 °F - 37.9 °F 85% 30.36 in 10.0 mi Calm Calm - N/A   Overcast
1:35 PM 42.4 °F - 37.9 °F 84% 30.35 in 10.0 mi Calm Calm - N/A   Overcast
1:55 PM 43.9 °F 42.3 °F 39.0 °F 83% 30.33 in 10.0 mi SSW 3.5 mph - N/A   Overcast
2:15 PM 43.3 °F 39.9 °F 39.4 °F 86% 30.31 in 10.0 mi SSW 5.8 mph - N/A   Overcast
2:35 PM 46.4 °F 44.3 °F 39.9 °F 78% 30.30 in 10.0 mi South 4.6 mph - N/A   Overcast
2:55 PM 48.0 °F - 39.9 °F 74% 30.30 in 10.0 mi South 5.8 mph - N/A   Scattered Clouds
3:15 PM 48.6 °F - 39.7 °F 72% 30.29 in 10.0 mi SSW 5.8 mph - N/A   Mostly Cloudy
3:35 PM 48.2 °F - 39.0 °F 71% 30.29 in 10.0 mi South 6.9 mph - N/A   Overcast
3:55 PM 47.5 °F - 39.7 °F 75% 30.28 in 10.0 mi South 4.6 mph - N/A   Overcast
4:15 PM 46.8 °F - 39.4 °F 75% 30.28 in 10.0 mi South 8.1 mph - N/A   Mostly Cloudy
4:35 PM 47.8 °F - 41.0 °F 77% 30.28 in 10.0 mi South 8.1 mph - N/A   Mostly Cloudy
4:55 PM 47.8 °F - 42.6 °F 82% 30.27 in 10.0 mi South 9.2 mph - N/A   Scattered Clouds
5:15 PM 46.8 °F - 42.6 °F 85% 30.27 in 10.0 mi South 8.1 mph - N/A   Scattered Clouds
5:35 PM 46.2 °F 45.0 °F 42.1 °F 85% 30.28 in 10.0 mi SSW 3.5 mph - N/A   Overcast
6:15 PM 45.5 °F - 41.9 °F 87% 30.28 in 10.0 mi Calm Calm - N/A   Overcast
6:35 PM 44.6 °F 41.4 °F 41.4 °F 88% 30.27 in 10.0 mi SSW 5.8 mph - N/A   Overcast
6:55 PM 44.6 °F 43.1 °F 41.9 °F 90% 30.27 in 10.0 mi SW 3.5 mph - N/A   Mostly Cloudy
7:15 PM 46.0 °F 43.1 °F 42.8 °F 88% 30.27 in 10.0 mi SSW 5.8 mph - N/A   Overcast
7:35 PM 45.7 °F 44.4 °F 42.8 °F 90% 30.27 in 10.0 mi SW 3.5 mph - N/A   Overcast
7:55 PM 46.4 °F 42.4 °F 43.3 °F 89% 30.26 in 10.0 mi SW 8.1 mph - N/A   Overcast
8:15 PM 45.5 °F 40.8 °F 43.0 °F 91% 30.25 in 10.0 mi SW 9.2 mph - N/A   Mostly Cloudy
8:35 PM 46.6 °F - 44.2 °F 92% 30.25 in 10.0 mi SW 11.5 mph - N/A   Scattered Clouds
8:55 PM 46.4 °F 41.5 °F 44.2 °F 92% 30.24 in 10.0 mi SSW 10.4 mph - N/A   Clear
9:15 PM 47.3 °F - 45.9 °F 95% 30.23 in 10.0 mi SW 10.4 mph - N/A   Clear
9:35 PM 49.3 °F - 48.4 °F 97% 30.23 in 10.0 mi SW 11.5 mph - N/A   Scattered Clouds
9:55 PM 52.7 °F - 51.4 °F 95% 30.23 in 10.0 mi WSW 15.0 mph - N/A   Mostly Cloudy
10:15 PM 51.8 °F - 49.8 °F 93% 30.22 in 10.0 mi WSW 10.4 mph - N/A   Mostly Cloudy
10:35 PM 51.4 °F - 50.0 °F 95% 30.22 in 10.0 mi WSW 11.5 mph - N/A   Scattered Clouds
10:55 PM 51.6 °F - 50.0 °F 94% 30.22 in 10.0 mi WSW 12.7 mph - N/A   Clear
11:15 PM 51.3 °F - 49.8 °F 95% 30.21 in 10.0 mi WSW 11.5 mph - N/A   Clear
11:35 PM 51.3 °F - 50.0 °F 95% 30.21 in 10.0 mi WSW 10.4 mph - N/A   Clear
11:55 PM 51.6 °F - 50.4 °F 95% 30.21 in 10.0 mi WSW 10.4 mph - N/A   Clear